contact:dominique.lefevre@mio.osupytheas.fr, maurice.libes@osupytheas.fr, didier.mallarino@osupytheas.fr
Project:EMSO http://www.emso-fr.org/EMSO-France
Depth: 2436.0 m
Title:EMSO Ligure Ouest : Data MII capteur AQUADOPP
Date,Latitude,Longitude,X_East,Y_North,Z_Up,Amplitude_X,Amplitude_Y,Amplitude_Z,Batterie,SoundSpeed,Heading,Pitch,Roll,Pressure,TIS,Speed,Direction
, degrees North, degrees East, m.s-1, m.s-1,m.s-1, 1, 1, 1, Volt, m.s-1, degree, degree, degree, dbar, degree_C, m.s-1, degree
2022-01-24T00:04:03,42.805,6.029,-0.023,-0.019,-0.021,106.0,106.0,104.0,13.3,1505.2,325.6,-0.8,1.8,2470.858,13.28,0.029,230.4
2022-01-24T00:07:03,42.805,6.029,-0.029,-0.028,0.001,107.0,106.0,103.0,13.4,1505.2,325.1,-0.8,1.8,2470.803,13.28,0.04,226.0
2022-01-24T00:10:03,42.805,6.029,-0.046,-0.051,-0.041,107.0,106.0,104.0,13.4,1505.2,329.3,-0.8,1.8,2470.8,13.28,0.068,222.0
2022-01-24T00:13:03,42.805,6.029,-0.034,-0.017,-0.031,108.0,104.0,104.0,13.4,1505.2,325.8,-0.7,1.8,2470.741,13.28,0.038,243.4
2022-01-24T00:16:03,42.805,6.029,-0.042,-0.022,-0.032,108.0,106.0,104.0,13.4,1505.2,331.0,-0.8,1.8,2470.82,13.28,0.047,242.4
2022-01-24T00:19:03,42.805,6.029,-0.027,-0.035,0.002,107.0,106.0,104.0,13.4,1505.2,331.0,-0.8,1.8,2470.816,13.28,0.044,217.7
2022-01-24T00:22:03,42.805,6.029,-0.038,-0.032,-0.004,107.0,106.0,104.0,13.4,1505.2,326.2,-0.8,1.8,2470.829,13.28,0.049,229.9
2022-01-24T00:25:03,42.805,6.029,-0.035,-0.027,-0.01,107.0,107.0,104.0,13.3,1505.2,324.2,-0.7,1.8,2470.821,13.28,0.044,232.3
2022-01-24T00:28:03,42.805,6.029,-0.016,-0.029,-0.007,108.0,107.0,104.0,13.3,1505.2,328.6,-0.8,1.8,2470.835,13.28,0.033,208.9
2022-01-24T00:31:03,42.805,6.029,-0.04,-0.023,-0.001,106.0,107.0,105.0,13.4,1505.2,324.5,-0.8,1.8,2470.782,13.28,0.046,240.1
2022-01-24T00:34:03,42.805,6.029,-0.026,-0.027,-0.007,108.0,107.0,104.0,13.4,1505.2,327.7,-0.8,1.8,2470.773,13.28,0.037,223.9
2022-01-24T00:37:03,42.805,6.029,-0.036,-0.047,-0.01,107.0,106.0,104.0,13.4,1505.2,327.2,-0.7,1.9,2470.804,13.28,0.059,217.5
2022-01-24T00:40:03,42.805,6.029,-0.045,-0.02,-0.024,107.0,106.0,104.0,13.3,1505.2,326.3,-0.7,1.8,2470.801,13.28,0.049,246.0
2022-01-24T00:43:03,42.805,6.029,-0.04,-0.021,-0.016,107.0,107.0,104.0,13.4,1505.2,326.2,-0.7,1.8,2470.762,13.28,0.045,242.3
2022-01-24T00:46:03,42.805,6.029,-0.047,-0.007,-0.004,107.0,107.0,103.0,13.3,1505.2,331.0,-0.7,1.8,2470.829,13.28,0.047,261.5
2022-01-24T00:49:03,42.805,6.029,-0.042,-0.02,0.004,107.0,106.0,104.0,13.4,1505.2,331.2,-0.8,1.8,2470.806,13.28,0.046,244.5
2022-01-24T00:52:03,42.805,6.029,-0.03,-0.022,-0.018,106.0,107.0,105.0,13.4,1505.2,330.8,-0.7,1.8,2470.778,13.28,0.037,233.7
2022-01-24T00:55:03,42.805,6.029,-0.047,-0.028,-0.007,106.0,106.0,104.0,13.3,1505.2,331.3,-0.8,1.9,2470.794,13.28,0.054,239.2
2022-01-24T00:58:03,42.805,6.029,-0.064,-0.023,0.002,107.0,106.0,104.0,13.4,1505.2,329.6,-0.8,1.9,2470.797,13.28,0.068,250.2
2022-01-24T01:04:03,42.805,6.029,-0.023,-0.036,-0.005,110.0,108.0,105.0,13.4,1505.2,328.0,-0.8,1.8,2470.822,13.28,0.042,212.6
2022-01-24T01:07:03,42.805,6.029,-0.021,-0.021,-0.025,107.0,107.0,103.0,13.3,1505.2,329.1,-0.7,1.8,2470.789,13.28,0.029,225.0
2022-01-24T01:10:03,42.805,6.029,-0.035,-0.022,-0.016,108.0,108.0,105.0,13.4,1505.2,331.3,-0.7,1.8,2470.771,13.28,0.041,237.8
2022-01-24T01:13:03,42.805,6.029,-0.05,-0.012,-0.007,107.0,108.0,103.0,13.4,1505.2,327.2,-0.8,1.8,2470.748,13.28,0.051,256.5
2022-01-24T01:16:03,42.805,6.029,-0.038,-0.031,0.0,107.0,107.0,104.0,13.3,1505.2,328.1,-0.7,1.8,2470.782,13.28,0.049,230.8
2022-01-24T01:19:03,42.805,6.029,-0.043,-0.025,-0.011,107.0,107.0,103.0,13.4,1505.2,331.0,-0.8,1.8,2470.763,13.28,0.049,239.8
2022-01-24T01:22:03,42.805,6.029,-0.026,-0.024,-0.023,107.0,105.0,105.0,13.3,1505.2,329.4,-0.7,1.8,2470.789,13.28,0.035,227.3
2022-01-24T01:25:03,42.805,6.029,-0.049,-0.036,0.005,107.0,107.0,103.0,13.4,1505.2,325.4,-0.7,1.8,2470.741,13.28,0.06,233.7
2022-01-24T01:28:03,42.805,6.029,-0.021,0.001,0.001,107.0,106.0,104.0,13.4,1505.2,325.8,-0.8,1.8,2470.782,13.28,0.021,272.7
2022-01-24T01:31:03,42.805,6.029,-0.05,-0.041,-0.025,107.0,107.0,104.0,13.4,1505.2,325.8,-0.7,1.9,2470.753,13.28,0.064,230.7
2022-01-24T01:34:03,42.805,6.029,-0.028,-0.04,-0.026,107.0,107.0,104.0,13.4,1505.2,324.4,-0.8,1.8,2470.76,13.28,0.048,215.0
2022-01-24T01:37:03,42.805,6.029,-0.045,-0.024,-0.034,108.0,106.0,104.0,13.4,1505.2,328.8,-0.8,1.8,2470.762,13.28,0.051,241.9
2022-01-24T01:40:03,42.805,6.029,-0.036,-0.012,0.004,107.0,108.0,104.0,13.3,1505.2,326.3,-0.8,1.8,2470.795,13.28,0.037,251.6
2022-01-24T01:43:03,42.805,6.029,-0.033,-0.002,0.0,106.0,109.0,104.0,13.4,1505.2,327.5,-0.8,1.8,2470.776,13.28,0.033,266.5
2022-01-24T01:46:03,42.805,6.029,-0.036,-0.009,0.001,106.0,108.0,104.0,13.4,1505.2,329.0,-0.7,1.8,2470.759,13.28,0.037,256.0
2022-01-24T01:49:03,42.805,6.029,-0.031,-0.024,0.001,107.0,107.0,104.0,13.3,1505.2,324.9,-0.7,1.8,2470.78,13.28,0.039,232.3
2022-01-24T01:52:03,42.805,6.029,-0.052,-0.026,-0.042,107.0,105.0,105.0,13.4,1505.2,331.1,-0.8,1.8,2470.766,13.28,0.058,243.4
2022-01-24T01:55:03,42.805,6.029,-0.034,-0.029,-0.029,108.0,108.0,104.0,13.4,1505.2,329.9,-0.8,1.8,2470.744,13.28,0.044,229.5
2022-01-24T01:58:03,42.805,6.029,-0.042,-0.011,-0.007,108.0,107.0,104.0,13.4,1505.2,324.6,-0.7,1.8,2470.781,13.28,0.043,255.3
2022-01-24T02:04:03,42.805,6.029,-0.025,-0.029,-0.004,107.0,106.0,104.0,13.4,1505.2,325.3,-0.8,1.8,2470.789,13.28,0.038,220.8
2022-01-24T02:07:03,42.805,6.029,-0.022,-0.027,-0.031,107.0,106.0,105.0,13.3,1505.2,326.3,-0.8,1.8,2470.745,13.28,0.034,219.2
2022-01-24T02:10:03,42.805,6.029,-0.035,-0.017,-0.007,107.0,106.0,105.0,13.3,1505.2,329.6,-0.7,1.8,2470.76,13.28,0.038,244.1
2022-01-24T02:13:03,42.805,6.029,-0.031,-0.013,-0.027,107.0,106.0,104.0,13.4,1505.2,328.0,-0.8,1.8,2470.743,13.28,0.033,247.3
2022-01-24T02:16:03,42.805,6.029,-0.058,-0.013,-0.018,107.0,106.0,105.0,13.4,1505.2,327.9,-0.8,1.8,2470.708,13.28,0.059,257.4
2022-01-24T02:19:03,42.805,6.029,-0.019,-0.015,0.026,107.0,107.0,104.0,13.4,1505.2,324.3,-0.7,1.8,2470.735,13.28,0.024,231.7
2022-01-24T02:22:03,42.805,6.029,-0.038,-0.035,0.006,107.0,107.0,105.0,13.3,1505.2,327.5,-0.7,1.8,2470.745,13.28,0.051,227.4
2022-01-24T02:25:03,42.805,6.029,-0.033,-0.025,0.015,107.0,107.0,104.0,13.4,1505.2,330.6,-0.8,1.9,2470.74,13.28,0.041,232.9
2022-01-24T02:28:03,42.805,6.029,-0.058,-0.029,-0.01,106.0,107.0,104.0,13.3,1505.2,328.8,-0.7,1.8,2470.742,13.28,0.064,243.4
2022-01-24T02:31:03,42.805,6.029,-0.045,-0.016,-0.031,108.0,106.0,105.0,13.3,1505.2,324.2,-0.7,1.8,2470.743,13.28,0.047,250.4
2022-01-24T02:34:03,42.805,6.029,-0.033,-0.01,0.012,107.0,107.0,104.0,13.4,1505.2,328.9,-0.8,1.8,2470.696,13.28,0.034,253.1
2022-01-24T02:37:03,42.805,6.029,-0.023,-0.012,0.001,107.0,108.0,105.0,13.3,1505.2,329.8,-0.7,1.8,2470.732,13.28,0.025,242.4
2022-01-24T02:40:03,42.805,6.029,-0.014,-0.024,-0.03,107.0,108.0,106.0,13.4,1505.2,326.2,-0.8,1.8,2470.726,13.28,0.027,210.3
2022-01-24T02:43:03,42.805,6.029,-0.041,-0.021,-0.043,108.0,106.0,104.0,13.3,1505.2,328.9,-0.8,1.8,2470.748,13.28,0.046,242.9
2022-01-24T02:46:03,42.805,6.029,-0.021,-0.017,0.007,107.0,107.0,104.0,13.4,1505.2,323.9,-0.8,1.8,2470.734,13.28,0.027,231.0
2022-01-24T02:49:03,42.805,6.029,-0.025,-0.029,-0.026,108.0,107.0,103.0,13.4,1505.2,325.2,-0.8,1.8,2470.704,13.28,0.038,220.8
2022-01-24T02:52:03,42.805,6.029,-0.048,0.009,0.024,107.0,107.0,105.0,13.3,1505.2,329.4,-0.8,1.8,2470.721,13.28,0.048,280.6
2022-01-24T02:55:03,42.805,6.029,-0.029,-0.027,-0.019,107.0,107.0,104.0,13.4,1505.2,329.8,-0.8,1.8,2470.696,13.28,0.039,227.0
2022-01-24T02:58:03,42.805,6.029,-0.042,-0.012,-0.003,107.0,108.0,104.0,13.4,1505.2,327.0,-0.7,1.8,2470.711,13.28,0.043,254.1
2022-01-24T03:04:03,42.805,6.029,-0.041,-0.012,0.004,107.0,106.0,104.0,13.4,1505.2,324.3,-0.8,1.8,2470.774,13.28,0.042,253.7
2022-01-24T03:07:03,42.805,6.029,-0.046,-0.046,-0.032,108.0,106.0,105.0,13.4,1505.2,323.6,-0.8,1.8,2470.708,13.28,0.065,225.0
2022-01-24T03:10:03,42.805,6.029,-0.05,-0.023,-0.005,108.0,106.0,104.0,13.4,1505.2,328.9,-0.7,1.8,2470.699,13.28,0.055,245.3
2022-01-24T03:13:03,42.805,6.029,-0.028,-0.03,0.008,108.0,106.0,105.0,13.4,1505.2,329.1,-0.7,1.8,2470.691,13.28,0.041,223.0
2022-01-24T03:16:03,42.805,6.029,-0.016,-0.008,0.0,106.0,107.0,104.0,13.3,1505.2,324.1,-0.8,1.8,2470.714,13.28,0.017,243.4
2022-01-24T03:19:03,42.805,6.029,-0.062,-0.003,-0.014,107.0,106.0,103.0,13.3,1505.2,328.5,-0.8,1.8,2470.724,13.28,0.062,267.2
2022-01-24T03:22:03,42.805,6.029,-0.043,-0.034,-0.014,107.0,106.0,103.0,13.3,1505.2,324.5,-0.8,1.8,2470.75,13.28,0.054,231.7
2022-01-24T03:25:03,42.805,6.029,-0.049,-0.018,-0.005,106.0,106.0,104.0,13.3,1505.2,325.0,-0.7,1.8,2470.711,13.28,0.052,249.8
2022-01-24T03:28:03,42.805,6.029,-0.029,-0.022,-0.02,106.0,107.0,104.0,13.4,1505.2,324.9,-0.7,1.8,2470.691,13.28,0.036,232.8
2022-01-24T03:31:03,42.805,6.029,-0.045,-0.017,-0.003,108.0,107.0,103.0,13.4,1505.2,328.6,-0.7,1.8,2470.723,13.28,0.048,249.3
2022-01-24T03:34:03,42.805,6.029,-0.062,0.004,-0.021,107.0,106.0,103.0,13.4,1505.2,329.9,-0.8,1.8,2470.702,13.28,0.062,273.7
2022-01-24T03:37:03,42.805,6.029,-0.023,-0.018,-0.016,107.0,106.0,104.0,13.3,1505.2,327.6,-0.8,1.8,2470.697,13.28,0.029,232.0
2022-01-24T03:40:03,42.805,6.029,-0.048,-0.024,-0.03,106.0,106.0,104.0,13.3,1505.2,328.4,-0.7,1.8,2470.688,13.28,0.053,243.4
2022-01-24T03:43:03,42.805,6.029,-0.028,-0.004,0.015,106.0,106.0,106.0,13.3,1505.2,328.2,-0.8,1.8,2470.696,13.28,0.028,261.9
2022-01-24T03:46:03,42.805,6.029,-0.033,-0.008,-0.02,107.0,107.0,104.0,13.4,1505.2,323.9,-0.8,1.8,2470.705,13.28,0.033,256.4
2022-01-24T03:49:03,42.805,6.029,-0.032,0.0,-0.001,107.0,107.0,104.0,13.4,1505.2,330.3,-0.8,1.8,2470.716,13.28,0.032,270.0
2022-01-24T03:52:03,42.805,6.029,-0.024,-0.015,-0.008,107.0,107.0,104.0,13.4,1505.2,328.7,-0.8,1.8,2470.656,13.28,0.028,238.0
2022-01-24T03:55:03,42.805,6.029,-0.028,0.002,-0.018,107.0,107.0,104.0,13.4,1505.2,328.8,-0.7,1.8,2470.691,13.28,0.028,274.1
2022-01-24T03:58:03,42.805,6.029,-0.028,-0.008,-0.002,106.0,106.0,106.0,13.4,1505.2,325.4,-0.7,1.8,2470.672,13.28,0.029,254.1
2022-01-24T04:04:03,42.805,6.029,-0.035,-0.037,-0.004,107.0,106.0,105.0,13.4,1505.2,328.7,-0.8,1.8,2470.722,13.28,0.05,223.4
2022-01-24T04:07:03,42.805,6.029,-0.045,-0.026,-0.003,108.0,105.0,104.0,13.4,1505.2,325.3,-0.8,1.8,2470.681,13.28,0.051,240.0
2022-01-24T04:10:03,42.805,6.029,-0.037,-0.009,-0.003,107.0,106.0,104.0,13.4,1505.2,324.8,-0.8,1.8,2470.686,13.28,0.038,256.3
2022-01-24T04:13:03,42.805,6.029,-0.028,-0.032,-0.021,108.0,106.0,104.0,13.3,1505.2,324.1,-0.8,1.8,2470.7,13.28,0.042,221.2
2022-01-24T04:16:03,42.805,6.029,-0.051,0.001,-0.009,107.0,105.0,105.0,13.4,1505.2,329.4,-0.8,1.8,2470.665,13.28,0.051,271.1
2022-01-24T04:19:03,42.805,6.029,-0.034,-0.012,-0.036,107.0,106.0,104.0,13.3,1505.2,326.1,-0.7,1.8,2470.711,13.28,0.036,250.6
2022-01-24T04:22:03,42.805,6.029,-0.07,-0.007,0.005,106.0,106.0,104.0,13.4,1505.2,329.5,-0.8,1.9,2470.696,13.28,0.07,264.3
2022-01-24T04:25:03,42.805,6.029,-0.047,-0.027,-0.001,107.0,107.0,103.0,13.4,1505.2,323.8,-0.7,1.8,2470.675,13.28,0.054,240.1
2022-01-24T04:28:03,42.805,6.029,-0.05,-0.007,-0.042,107.0,106.0,104.0,13.4,1505.2,323.4,-0.8,1.8,2470.738,13.28,0.05,262.0
2022-01-24T04:31:03,42.805,6.029,-0.027,-0.006,-0.002,107.0,107.0,105.0,13.3,1505.2,329.3,-0.8,1.8,2470.706,13.28,0.027,257.5
2022-01-24T04:34:03,42.805,6.029,-0.029,-0.001,-0.031,105.0,107.0,104.0,13.3,1505.2,329.4,-0.7,1.8,2470.695,13.28,0.029,268.0
2022-01-24T04:37:03,42.805,6.029,-0.039,-0.008,-0.025,106.0,107.0,103.0,13.4,1505.2,328.4,-0.8,1.8,2470.658,13.28,0.039,258.4
2022-01-24T04:40:03,42.805,6.029,-0.037,0.004,-0.001,108.0,107.0,105.0,13.3,1505.2,329.9,-0.8,1.8,2470.681,13.28,0.037,276.2
2022-01-24T04:43:03,42.805,6.029,-0.038,-0.018,0.014,108.0,106.0,104.0,13.4,1505.2,325.3,-0.7,1.8,2470.684,13.28,0.042,244.7
2022-01-24T04:46:03,42.805,6.029,-0.038,-0.004,-0.011,107.0,106.0,104.0,13.4,1505.2,331.1,-0.7,1.8,2470.724,13.28,0.038,264.0
2022-01-24T04:49:03,42.805,6.029,-0.052,0.0,-0.001,108.0,106.0,103.0,13.4,1505.2,328.8,-0.8,1.8,2470.656,13.28,0.052,270.0
2022-01-24T04:52:03,42.805,6.029,-0.041,-0.006,-0.003,106.0,107.0,104.0,13.3,1505.2,330.4,-0.8,1.8,2470.651,13.28,0.041,261.7
2022-01-24T04:55:03,42.805,6.029,-0.025,-0.007,-0.003,107.0,106.0,104.0,13.4,1505.2,327.5,-0.8,1.8,2470.705,13.28,0.025,254.4
2022-01-24T04:58:03,42.805,6.029,-0.035,0.0,-0.033,109.0,106.0,105.0,13.3,1505.2,329.5,-0.8,1.8,2470.65,13.28,0.035,270.0
2022-01-24T05:04:03,42.805,6.029,-0.038,0.007,-0.021,107.0,107.0,104.0,13.4,1505.2,324.9,-0.7,1.8,2470.742,13.28,0.038,280.4
2022-01-24T05:07:03,42.805,6.029,-0.008,-0.014,0.002,108.0,106.0,104.0,13.4,1505.2,324.3,-0.7,1.8,2470.716,13.28,0.016,209.7
2022-01-24T05:10:03,42.805,6.029,-0.038,0.009,-0.036,108.0,106.0,105.0,13.3,1505.2,329.2,-0.7,1.8,2470.727,13.28,0.039,283.3
2022-01-24T05:13:03,42.805,6.029,-0.032,-0.003,-0.003,107.0,108.0,104.0,13.4,1505.2,325.9,-0.8,1.8,2470.676,13.28,0.032,264.6
2022-01-24T05:16:03,42.805,6.029,-0.038,-0.002,0.005,107.0,106.0,104.0,13.4,1505.2,324.3,-0.8,1.8,2470.703,13.28,0.038,267.0
2022-01-24T05:19:03,42.805,6.029,-0.055,0.018,-0.017,106.0,107.0,104.0,13.3,1505.2,328.9,-0.8,1.8,2470.652,13.28,0.057,288.1
2022-01-24T05:22:03,42.805,6.029,-0.04,-0.014,-0.034,107.0,105.0,104.0,13.4,1505.2,329.8,-0.8,1.8,2470.678,13.28,0.042,250.7
2022-01-24T05:25:03,42.805,6.029,-0.029,0.018,-0.001,106.0,106.0,103.0,13.3,1505.2,328.3,-0.8,1.8,2470.712,13.28,0.034,301.8
2022-01-24T05:28:03,42.805,6.029,-0.041,0.001,-0.017,106.0,105.0,103.0,13.4,1505.2,329.3,-0.7,1.9,2470.688,13.29,0.041,271.4
2022-01-24T05:31:03,42.805,6.029,-0.061,0.002,0.022,107.0,106.0,104.0,13.4,1505.2,325.9,-0.7,1.8,2470.676,13.28,0.061,271.9
2022-01-24T05:34:03,42.805,6.029,-0.034,0.004,0.008,107.0,107.0,104.0,13.4,1505.2,331.7,-0.7,1.8,2470.715,13.29,0.034,276.7
2022-01-24T05:37:03,42.805,6.029,-0.047,-0.007,-0.022,107.0,107.0,103.0,13.4,1505.2,326.1,-0.7,1.8,2470.649,13.29,0.047,261.5
2022-01-24T05:40:03,42.805,6.029,-0.035,0.004,-0.024,107.0,107.0,104.0,13.3,1505.2,328.9,-0.7,1.8,2470.668,13.29,0.035,276.5
2022-01-24T05:43:03,42.805,6.029,-0.043,0.01,-0.019,106.0,107.0,104.0,13.3,1505.2,329.4,-0.7,1.8,2470.682,13.29,0.044,283.1
2022-01-24T05:46:03,42.805,6.029,-0.042,0.012,-0.022,107.0,105.0,104.0,13.3,1505.2,327.1,-0.8,1.8,2470.684,13.28,0.043,285.9
2022-01-24T05:49:03,42.805,6.029,-0.017,-0.001,-0.037,108.0,106.0,104.0,13.4,1505.2,329.2,-0.8,1.8,2470.686,13.29,0.017,266.6
2022-01-24T05:52:03,42.805,6.029,-0.018,0.009,-0.022,107.0,107.0,104.0,13.4,1505.2,325.9,-0.7,1.8,2470.667,13.29,0.02,296.6
2022-01-24T05:55:03,42.805,6.029,-0.049,-0.005,0.019,107.0,106.0,104.0,13.4,1505.2,328.7,-0.7,1.8,2470.681,13.29,0.049,264.2
2022-01-24T05:58:03,42.805,6.029,-0.033,-0.016,-0.015,107.0,106.0,104.0,13.3,1505.2,325.3,-0.7,1.8,2470.671,13.29,0.036,244.1
2022-01-24T06:04:03,42.805,6.029,-0.045,-0.008,-0.023,106.0,106.0,103.0,13.3,1505.2,326.4,-0.7,1.8,2470.726,13.28,0.045,259.9
2022-01-24T06:07:03,42.805,6.029,-0.055,0.001,0.017,106.0,107.0,103.0,13.4,1505.2,329.6,-0.7,1.8,2470.683,13.28,0.055,271.0
2022-01-24T06:10:03,42.805,6.029,-0.033,-0.005,0.0,108.0,106.0,105.0,13.4,1505.2,329.8,-0.8,1.9,2470.671,13.28,0.033,261.4
2022-01-24T06:13:03,42.805,6.029,-0.013,-0.01,-0.034,108.0,107.0,105.0,13.4,1505.2,325.3,-0.8,1.8,2470.67,13.28,0.016,232.4
2022-01-24T06:16:03,42.805,6.029,-0.022,0.011,-0.023,106.0,107.0,104.0,13.4,1505.2,329.0,-0.7,1.8,2470.687,13.28,0.024,296.6
2022-01-24T06:19:03,42.805,6.029,-0.038,0.02,-0.021,107.0,106.0,104.0,13.3,1505.2,330.5,-0.8,1.8,2470.712,13.28,0.042,297.8
2022-01-24T06:22:03,42.805,6.029,-0.038,-0.003,0.011,107.0,106.0,104.0,13.3,1505.2,325.5,-0.8,1.8,2470.698,13.29,0.038,265.5
2022-01-24T06:25:03,42.805,6.029,-0.038,0.014,-0.009,106.0,106.0,103.0,13.4,1505.2,329.8,-0.8,1.8,2470.709,13.28,0.04,290.2
2022-01-24T06:28:03,42.805,6.029,-0.071,-0.009,0.0,106.0,106.0,104.0,13.4,1505.2,328.9,-0.8,1.8,2470.683,13.29,0.071,262.8
2022-01-24T06:31:03,42.805,6.029,-0.056,-0.004,-0.023,107.0,106.0,103.0,13.4,1505.2,328.3,-0.8,1.8,2470.698,13.29,0.056,265.9
2022-01-24T06:34:03,42.805,6.029,-0.038,0.002,0.0,106.0,107.0,104.0,13.4,1505.2,326.6,-0.8,1.8,2470.676,13.29,0.038,273.0
2022-01-24T06:37:03,42.805,6.029,-0.049,-0.019,-0.012,108.0,107.0,104.0,13.4,1505.2,326.0,-0.7,1.8,2470.691,13.29,0.052,248.8
2022-01-24T06:40:03,42.805,6.029,-0.05,-0.006,-0.009,107.0,106.0,104.0,13.4,1505.2,329.9,-0.7,1.8,2470.667,13.29,0.05,263.2
2022-01-24T06:43:03,42.805,6.029,-0.044,0.004,-0.041,106.0,106.0,104.0,13.4,1505.2,330.7,-0.7,1.8,2470.67,13.29,0.044,275.2
2022-01-24T06:46:03,42.805,6.029,-0.023,-0.005,-0.002,108.0,105.0,104.0,13.4,1505.2,329.8,-0.8,1.8,2470.674,13.29,0.023,257.7
2022-01-24T06:49:03,42.805,6.029,-0.033,0.007,-0.02,107.0,105.0,104.0,13.3,1505.2,331.5,-0.7,1.8,2470.705,13.29,0.033,282.0
2022-01-24T06:52:03,42.805,6.029,-0.026,0.008,0.0,107.0,106.0,104.0,13.3,1505.2,330.7,-0.8,1.8,2470.673,13.29,0.027,287.1
2022-01-24T06:55:03,42.805,6.029,-0.012,0.011,-0.035,107.0,106.0,103.0,13.3,1505.2,332.0,-0.8,1.8,2470.702,13.29,0.016,312.5
2022-01-24T06:58:03,42.805,6.029,-0.026,0.003,-0.021,107.0,107.0,105.0,13.3,1505.2,327.8,-0.7,1.8,2470.712,13.29,0.026,276.6
2022-01-24T07:04:03,42.805,6.029,-0.04,-0.013,0.006,107.0,107.0,103.0,13.4,1505.2,325.4,-0.8,1.8,2470.714,13.28,0.042,252.0
2022-01-24T07:07:03,42.805,6.029,-0.031,-0.011,-0.003,107.0,107.0,104.0,13.4,1505.2,323.3,-0.8,1.8,2470.666,13.28,0.032,250.5
2022-01-24T07:10:03,42.805,6.029,-0.047,0.011,-0.024,108.0,106.0,104.0,13.4,1505.2,327.8,-0.8,1.8,2470.695,13.28,0.048,283.2
2022-01-24T07:13:03,42.805,6.029,-0.045,0.001,-0.012,108.0,106.0,104.0,13.3,1505.2,328.4,-0.8,1.8,2470.692,13.28,0.045,271.3
2022-01-24T07:16:03,42.805,6.029,-0.038,0.008,0.004,108.0,106.0,103.0,13.4,1505.2,329.4,-0.7,1.8,2470.703,13.28,0.038,281.9
2022-01-24T07:19:03,42.805,6.029,-0.048,0.006,-0.024,107.0,106.0,104.0,13.4,1505.2,326.8,-0.8,1.8,2470.727,13.29,0.048,277.1
2022-01-24T07:22:03,42.805,6.029,-0.025,0.011,-0.032,108.0,107.0,105.0,13.4,1505.2,330.3,-0.8,1.8,2470.738,13.29,0.027,293.7
2022-01-24T07:25:03,42.805,6.029,-0.024,-0.008,-0.015,107.0,107.0,105.0,13.4,1505.2,329.9,-0.7,1.8,2470.707,13.29,0.025,251.6
2022-01-24T07:28:03,42.805,6.029,-0.021,0.007,-0.005,106.0,107.0,104.0,13.4,1505.2,330.4,-0.8,1.8,2470.699,13.29,0.022,288.4
2022-01-24T07:31:03,42.805,6.029,-0.009,-0.009,-0.01,107.0,107.0,104.0,13.3,1505.2,330.4,-0.7,1.8,2470.721,13.29,0.012,225.0
2022-01-24T07:34:03,42.805,6.029,-0.048,0.014,0.003,108.0,106.0,103.0,13.4,1505.2,329.7,-0.8,1.9,2470.753,13.29,0.05,286.3
2022-01-24T07:37:03,42.805,6.029,-0.023,0.008,-0.007,106.0,108.0,104.0,13.4,1505.2,329.9,-0.7,1.8,2470.74,13.29,0.024,289.2
2022-01-24T07:40:03,42.805,6.029,-0.058,-0.011,-0.062,107.0,107.0,104.0,13.3,1505.2,327.6,-0.8,1.8,2470.736,13.29,0.059,259.3
2022-01-24T07:43:03,42.805,6.029,-0.045,0.0,-0.016,107.0,107.0,103.0,13.4,1505.2,329.0,-0.7,1.8,2470.761,13.29,0.045,270.0
2022-01-24T07:46:03,42.805,6.029,-0.043,0.017,-0.01,107.0,106.0,104.0,13.4,1505.2,331.7,-0.8,1.8,2470.753,13.29,0.046,291.6
2022-01-24T07:49:03,42.805,6.029,-0.022,0.007,-0.073,108.0,107.0,104.0,13.3,1505.2,326.3,-0.8,1.8,2470.732,13.29,0.023,287.6
2022-01-24T07:52:03,42.805,6.029,-0.054,0.021,-0.002,107.0,107.0,104.0,13.4,1505.2,327.5,-0.8,1.8,2470.74,13.29,0.057,291.2
2022-01-24T07:55:03,42.805,6.029,-0.019,0.003,0.001,108.0,108.0,103.0,13.3,1505.2,327.0,-0.8,1.8,2470.756,13.29,0.019,279.0
2022-01-24T07:58:03,42.805,6.029,-0.038,0.024,-0.002,106.0,107.0,104.0,13.4,1505.2,325.4,-0.8,1.8,2470.783,13.29,0.044,302.3
2022-01-24T08:04:03,42.805,6.029,-0.036,-0.015,-0.018,107.0,106.0,104.0,13.4,1505.2,323.7,-0.8,1.8,2470.844,13.28,0.039,247.4
2022-01-24T08:07:03,42.805,6.029,-0.032,0.001,-0.002,107.0,107.0,104.0,13.4,1505.2,329.4,-0.8,1.8,2470.77,13.28,0.032,271.8
2022-01-24T08:10:03,42.805,6.029,-0.028,-0.013,-0.027,108.0,107.0,105.0,13.4,1505.2,326.7,-0.8,1.8,2470.762,13.28,0.03,245.1
2022-01-24T08:13:03,42.805,6.029,-0.03,0.019,-0.01,108.0,107.0,104.0,13.3,1505.2,328.3,-0.7,1.8,2470.82,13.28,0.035,302.3
2022-01-24T08:16:03,42.805,6.029,-0.022,0.006,-0.014,106.0,106.0,105.0,13.4,1505.2,331.3,-0.8,1.8,2470.723,13.28,0.022,285.3
2022-01-24T08:19:03,42.805,6.029,-0.03,0.001,-0.027,108.0,107.0,104.0,13.4,1505.2,330.3,-0.8,1.8,2470.761,13.29,0.03,271.9
2022-01-24T08:22:03,42.805,6.029,-0.03,0.002,-0.01,107.0,108.0,104.0,13.4,1505.2,326.9,-0.7,1.8,2470.763,13.29,0.03,273.8
2022-01-24T08:25:03,42.805,6.029,-0.044,-0.002,-0.003,107.0,106.0,105.0,13.4,1505.2,327.3,-0.8,1.8,2470.782,13.29,0.044,267.4
2022-01-24T08:28:03,42.805,6.029,-0.018,-0.004,0.016,110.0,106.0,104.0,13.4,1505.2,328.7,-0.8,1.8,2470.746,13.29,0.018,257.5
2022-01-24T08:31:03,42.805,6.029,-0.023,-0.001,0.022,108.0,107.0,104.0,13.3,1505.2,328.6,-0.7,1.8,2470.766,13.29,0.023,267.5
2022-01-24T08:34:03,42.805,6.029,-0.019,-0.002,-0.025,107.0,106.0,104.0,13.3,1505.2,324.0,-0.8,1.8,2470.804,13.29,0.019,264.0
2022-01-24T08:37:03,42.805,6.029,-0.028,0.007,-0.016,108.0,107.0,104.0,13.3,1505.2,329.8,-0.8,1.8,2470.781,13.29,0.028,284.0
2022-01-24T08:40:03,42.805,6.029,-0.037,0.009,-0.022,108.0,107.0,104.0,13.4,1505.2,325.9,-0.8,1.8,2470.787,13.29,0.038,283.7
2022-01-24T08:43:03,42.805,6.029,-0.026,0.005,-0.015,108.0,107.0,104.0,13.4,1505.2,326.4,-0.8,1.8,2470.788,13.29,0.026,280.9
2022-01-24T08:46:03,42.805,6.029,-0.039,-0.008,0.0,108.0,107.0,104.0,13.4,1505.2,324.4,-0.8,1.8,2470.83,13.29,0.039,258.4
2022-01-24T08:49:03,42.805,6.029,-0.025,0.001,-0.019,109.0,107.0,104.0,13.3,1505.2,326.9,-0.7,1.8,2470.804,13.29,0.025,272.3
2022-01-24T08:52:03,42.805,6.029,-0.03,0.006,-0.012,107.0,107.0,103.0,13.4,1505.2,325.4,-0.7,1.8,2470.823,13.29,0.03,281.3
2022-01-24T08:55:03,42.805,6.029,-0.022,-0.011,-0.02,107.0,105.0,105.0,13.3,1505.2,331.0,-0.8,1.8,2470.762,13.29,0.024,243.4
2022-01-24T08:58:03,42.805,6.029,-0.043,0.012,-0.017,108.0,106.0,104.0,13.4,1505.2,325.7,-0.7,1.9,2470.785,13.29,0.044,285.6
2022-01-24T09:04:03,42.805,6.029,-0.026,0.009,-0.04,107.0,106.0,103.0,13.3,1505.2,323.9,-0.7,1.8,2470.829,13.28,0.027,289.1
2022-01-24T09:07:03,42.805,6.029,-0.031,0.0,-0.022,106.0,106.0,104.0,13.4,1505.2,327.2,-0.7,1.8,2470.805,13.28,0.03,270.0
2022-01-24T09:10:03,42.805,6.029,-0.037,0.031,-0.006,107.0,106.0,103.0,13.3,1505.2,323.4,-0.8,1.8,2470.824,13.28,0.048,310.0
2022-01-24T09:13:03,42.805,6.029,-0.031,-0.017,-0.018,108.0,107.0,103.0,13.4,1505.2,323.4,-0.8,1.8,2470.795,13.28,0.035,241.3
2022-01-24T09:16:03,42.805,6.029,-0.029,0.013,-0.03,107.0,107.0,104.0,13.3,1505.2,331.0,-0.8,1.8,2470.851,13.28,0.031,294.1
2022-01-24T09:19:03,42.805,6.029,-0.048,0.009,-0.018,107.0,107.0,103.0,13.4,1505.2,328.5,-0.7,1.8,2470.85,13.29,0.048,280.6
2022-01-24T09:22:03,42.805,6.029,-0.028,0.014,0.011,107.0,106.0,104.0,13.4,1505.2,329.4,-0.7,1.8,2470.845,13.29,0.031,296.6
2022-01-24T09:25:03,42.805,6.029,-0.041,0.015,0.01,106.0,106.0,105.0,13.4,1505.2,331.0,-0.7,1.8,2470.797,13.29,0.043,290.1
2022-01-24T09:28:03,42.805,6.029,-0.01,0.013,0.001,106.0,106.0,104.0,13.4,1505.2,331.0,-0.7,1.8,2470.789,13.29,0.016,322.4
2022-01-24T09:31:03,42.805,6.029,-0.018,0.008,-0.012,107.0,106.0,104.0,13.4,1505.2,329.5,-0.8,1.8,2470.865,13.29,0.019,294.0
2022-01-24T09:34:03,42.805,6.029,-0.011,0.002,-0.032,107.0,107.0,104.0,13.4,1505.2,327.2,-0.8,1.9,2470.847,13.29,0.011,280.3
2022-01-24T09:37:03,42.805,6.029,-0.032,-0.009,0.004,107.0,107.0,103.0,13.4,1505.2,324.4,-0.8,1.8,2470.818,13.29,0.033,254.3
2022-01-24T09:40:03,42.805,6.029,-0.037,0.01,-0.014,107.0,107.0,104.0,13.4,1505.2,327.7,-0.7,1.8,2470.848,13.29,0.038,285.1
2022-01-24T09:43:03,42.805,6.029,-0.019,0.003,-0.01,108.0,107.0,103.0,13.3,1505.2,328.9,-0.7,1.8,2470.846,13.29,0.019,279.0
2022-01-24T09:46:03,42.805,6.029,-0.032,0.004,0.014,107.0,106.0,104.0,13.4,1505.2,328.6,-0.8,1.8,2470.824,13.29,0.032,277.1
2022-01-24T09:49:03,42.805,6.029,-0.015,-0.001,0.004,107.0,107.0,105.0,13.4,1505.2,326.1,-0.7,1.8,2470.824,13.29,0.015,266.2
2022-01-24T09:52:03,42.805,6.029,-0.023,0.005,0.0,106.0,106.0,103.0,13.4,1505.2,326.9,-0.8,1.8,2470.841,13.29,0.023,282.3